Wind_Speed
15 14 12 12 11 9 9 10 10 9 9 10 9 10 10 9 8 9 8 8 6 5 5 4 4 3 3 4 5 6 7 7 8 8 9 9 9 8 7 7 7 7 7 7
15 14 12 12 11 10 11 11 10 9 9 10 10 10 10 10 9 9 8 7 6 5 4 3 3 2 3 4 5 5 6 7 7 7 7 7 8 8 7 6 6 6 6 6
14 13 14 13 12 12 12 12 10 10 11 12 12 12 12 11 10 9 7 6 6 4 3 2 2 3 3 4 5 5 5 6 6 7 7 7 7 7 7 6 5 5 5 5
14 14 14 14 13 13 13 11 11 11 13 13 14 14 11 10 10 8 6 5 4 3 1 2 4 4 4 4 5 5 6 6 6 6 7 6 6 7 6 5 5 4 4 4
13 14 16 16 15 14 13 11 12 13 15 15 15 15 12 9 8 7 5 4 3 1 1 3 4 4 4 4 4 5 6 7 7 6 7 7 7 7 6 5 4 3 2 2
13 15 16 16 15 15 14 14 15 15 16 16 15 13 11 10 8 6 5 4 2 2 3 4 5 4 4 4 5 6 6 7 7 7 7 7 7 7 6 5 4 3 2 2
14 15 15 16 16 16 15 16 16 17 16 15 15 14 11 10 8 6 3 3 4 4 4 5 5 5 4 5 5 6 6 6 7 7 7 7 7 6 6 5 4 4 3 2
15 15 15 16 17 16 15 17 17 18 16 15 15 14 11 9 7 6 4 4 5 6 6 6 6 5 5 5 5 6 6 6 7 7 7 7 7 6 6 5 4 4 3 2
18 17 18 19 19 18 18 19 18 18 16 15 15 12 9 7 7 7 5 5 5 7 7 7 6 5 5 5 5 5 6 6 6 6 7 7 7 7 6 5 4 4 3 2
22 22 20 21 20 20 21 21 20 20 18 16 15 12 10 9 7 7 6 7 7 8 8 7 6 6 5 5 5 5 5 5 5 6 7 7 7 6 6 5 4 3 2 1
23 24 22 22 21 20 20 21 20 19 19 18 16 14 12 10 8 6 4 7 9 9 9 8 7 6 5 5 5 5 5 5 6 6 7 7 6 6 5 4 3 3 2 1
24 24 23 22 22 22 20 20 20 20 19 18 17 14 12 11 9 7 5 7 8 8 8 8 7 6 6 6 5 5 5 5 6 6 7 6 5 5 5 4 3 2 2 2
25 25 24 22 23 23 24 23 21 21 21 20 17 13 12 12 10 7 6 7 7 8 7 7 6 6 6 6 6 6 6 6 6 6 6 6 6 6 5 5 4 4 3 3
26 25 25 25 23 22 23 25 24 23 22 19 16 15 13 12 9 8 7 7 6 7 7 7 7 6 6 6 6 7 7 7 6 6 7 7 7 7 6 6 6 5 5 5
26 25 25 25 24 23 25 25 26 25 22 19 17 17 14 12 10 8 8 8 7 7 7 7 7 7 7 7 7 7 7 7 7 8 8 8 8 8 8 7 7 7 7 7
24 26 25 25 25 24 24 24 24 24 24 21 20 18 15 13 12 9 8 9 8 8 8 8 8 8 8 8 8 8 8 8 8 9 9 9 10 9 9 9 9 9 9 9
24 24 25 25 25 25 25 23 24 25 25 24 22 18 16 14 14 11 9 9 9 9 10 9 9 10 9 10 10 9 9 9 9 9 10 10 11 11 11 11 11 11 11 11
23 23 24 23 23 23 21 23 24 25 25 25 23 21 19 17 14 12 11 10 11 10 10 10 10 10 10 10 10 10 10 11 11 11 11 11 12 12 13 13 13 13 13 13
22 21 22 23 22 22 21 22 22 24 26 25 22 21 21 19 15 13 11 11 10 11 11 11 11 11 11 12 12 12 12 13 12 12 13 13 13 13 14 14 14 15 15 15
21 21 21 22 23 23 22 22 23 23 24 23 22 21 20 19 16 12 12 11 11 10 11 12 13 13 13 13 14 14 14 14 14 14 14 15 15 15 15 16 16 17 17 17
20 20 22 23 23 23 22 22 24 24 22 22 22 23 22 20 16 15 14 13 13 12 12 14 14 15 15 16 16 16 16 16 16 16 16 16 17 17 17 17 18 19 19 19
19 21 21 23 24 22 21 23 24 22 23 25 25 24 22 19 17 16 15 15 14 13 14 15 15 15 16 17 17 17 17 17 17 17 17 18 18 19 20 20 21 21 21 21
18 18 18 20 22 21 20 19 20 21 21 21 22 24 21 19 19 17 16 16 15 15 16 16 16 16 17 17 18 18 18 18 18 18 19 19 19 20 21 22 22 22 22 23
17 18 19 20 21 21 20 19 19 18 19 18 20 21 20 20 20 18 18 17 17 18 18 17 17 17 17 18 19 19 19 19 20 20 20 21 21 21 22 22 23 23 24 24
16 17 18 19 20 20 19 19 19 17 17 18 18 20 21 20 19 19 19 19 20 20 20 19 18 18 19 19 20 20 20 20 21 22 22 22 23 23 23 24 24 25 25 25
16 17 18 19 19 19 18 17 17 18 18 18 18 18 19 19 19 19 19 19 20 20 22 22 21 20 20 20 21 21 21 22 22 23 23 24 24 24 24 26 26 27 27 28
Wind_Direction
249 248 247 246 247 252 260 270 280 289 302 303 297 300 306 306 317 325 321 314 312 304 288 270 258 256 238 217 204 203 205 203 198 199 204 202 201 205 209 216 217 222 234 242
245 240 238 238 241 248 255 264 277 288 292 292 293 294 301 304 311 309 313 309 307 306 294 277 249 231 201 184 179 175 184 188 193 187 185 189 194 200 202 206 216 225 231 238
243 233 231 230 228 237 250 261 270 278 279 278 285 292 294 293 300 297 301 297 313 316 295 244 193 182 176 178 174 174 180 179 178 180 186 188 192 198 202 209 213 216 219 225
239 231 229 226 225 234 244 258 264 269 273 273 277 286 289 294 293 293 293 281 304 325 323 160 153 153 161 161 167 174 173 169 169 172 177 182 182 182 182 189 195 201 210 224
237 232 230 227 225 228 234 247 256 262 267 270 271 275 277 292 291 285 277 278 294 310 183 158 158 148 145 142 148 160 163 165 166 165 169 171 170 171 172 173 174 175 185 202
237 233 233 233 228 231 237 244 249 257 262 264 267 269 276 283 283 280 268 266 225 162 163 163 158 152 142 135 140 148 155 161 164 163 161 160 162 163 164 162 161 156 150 153
241 235 236 235 232 231 237 243 250 251 258 261 265 265 270 272 271 273 251 227 191 176 167 160 159 158 148 139 138 147 154 161 166 164 160 158 157 156 157 157 151 143 131 124
245 236 233 234 238 238 240 243 251 256 261 263 265 265 263 252 259 247 221 199 184 172 164 161 159 158 149 143 141 145 151 154 161 167 168 163 158 157 155 153 146 143 135 123
247 241 230 233 235 238 240 241 246 254 258 263 264 256 248 255 255 243 218 188 179 172 167 167 167 164 160 154 148 144 149 151 155 155 163 167 161 156 153 151 146 141 139 130
248 247 236 235 235 234 241 240 239 243 253 260 259 256 250 244 243 229 224 206 181 173 174 172 175 179 174 168 160 150 151 154 159 162 166 164 157 153 152 150 146 143 141 139
247 247 238 233 233 233 236 237 240 245 250 259 261 257 248 242 225 214 206 189 181 179 177 176 181 185 184 180 171 160 160 166 168 167 165 164 161 162 163 165 166 171 177 201
244 246 243 234 232 232 233 236 238 242 248 254 260 253 247 238 218 201 198 185 180 177 180 182 181 186 189 191 186 176 172 175 177 178 180 179 178 176 179 187 196 206 221 245
244 245 245 238 234 235 236 239 242 242 246 251 254 243 238 232 221 206 203 192 180 175 181 188 186 193 199 201 200 193 188 189 192 195 199 201 201 202 206 213 221 225 238 256
244 244 244 243 241 237 239 243 245 246 249 249 244 236 238 234 232 220 213 207 197 186 187 195 200 205 209 208 208 204 201 204 208 212 214 215 217 220 223 227 232 241 253 266
245 243 242 241 240 240 241 242 244 246 247 247 240 236 240 243 237 226 225 221 211 203 201 204 205 207 211 212 213 214 215 217 221 224 226 227 229 232 235 238 243 251 260 268
245 244 243 241 241 241 241 239 241 240 241 243 240 238 235 239 233 229 227 219 215 215 215 214 211 209 215 218 220 225 229 230 232 233 234 236 239 242 244 246 249 255 261 268
248 247 245 243 239 239 237 235 235 235 237 240 240 240 235 234 233 229 227 229 227 225 226 222 219 219 221 222 224 227 232 236 238 240 240 243 245 247 249 252 255 260 264 269
247 247 243 242 239 239 237 234 236 236 236 237 239 240 237 229 228 235 235 232 223 226 229 229 226 226 226 226 228 234 238 241 243 245 247 248 249 251 252 255 258 262 267 270
248 246 244 242 240 239 236 236 234 235 235 235 236 233 231 228 229 232 232 227 220 225 232 234 235 236 237 238 238 240 243 244 246 249 250 252 254 255 258 259 261 264 267 270
245 244 244 240 238 239 239 238 235 237 233 230 235 234 232 233 232 232 234 234 231 232 235 237 238 241 243 243 242 242 245 248 250 252 254 256 258 259 261 263 265 267 268 271
241 239 239 240 241 240 237 236 236 235 231 231 236 235 235 234 235 239 241 239 234 238 238 237 239 240 243 245 247 245 246 249 252 255 258 263 261 264 267 268 270 269 270 272
240 238 237 241 243 242 238 235 236 236 233 232 233 233 232 232 234 237 241 243 243 242 241 239 239 241 242 245 249 249 250 253 255 258 261 264 267 268 269 269 271 271 272 274
239 238 241 243 242 241 240 237 233 233 233 231 231 228 230 232 232 239 239 238 242 244 243 243 243 243 244 246 248 250 252 255 258 260 263 265 269 269 268 269 271 272 273 274
240 238 244 245 242 240 237 234 229 228 227 229 231 233 233 229 228 235 238 239 241 243 243 245 246 248 250 250 252 255 256 258 260 262 265 267 270 270 270 271 272 273 273 274
245 245 244 243 242 234 229 230 227 226 224 227 229 227 226 228 231 234 236 237 238 240 243 245 246 249 251 252 254 256 258 260 262 264 265 268 271 270 270 271 272 273 274 275
246 245 244 240 236 232 232 231 232 229 227 228 227 225 225 227 233 235 237 238 239 239 241 242 243 248 250 251 253 257 259 260 264 266 267 269 270 271 270 270 271 272 274 275
Height
5854 5856 5857 5857 5858 5858 5858 5858 5858 5857 5856 5855 5854 5853 5852 5850 5849 5848 5847 5846 5845 5844 5844 5843 5843 5843 5843 5844 5844 5845 5846 5847 5848 5850 5852 5853 5855 5856 5858 5859 5860 5861 5862 5863
5851 5852 5853 5853 5853 5854 5854 5855 5855 5855 5854 5852 5852 5850 5849 5848 5847 5847 5846 5845 5844 5843 5842 5842 5842 5842 5842 5842 5843 5844 5845 5847 5848 5849 5851 5852 5853 5855 5856 5858 5859 5860 5860 5861
5846 5848 5848 5848 5849 5850 5851 5852 5853 5852 5851 5850 5849 5848 5847 5845 5845 5844 5843 5843 5843 5841 5840 5840 5841 5841 5841 5842 5842 5843 5845 5846 5847 5848 5849 5851 5852 5853 5855 5856 5857 5858 5859 5859
5841 5843 5843 5844 5845 5846 5847 5849 5850 5849 5849 5848 5848 5846 5846 5844 5843 5842 5842 5841 5841 5840 5839 5839 5840 5841 5841 5842 5842 5843 5844 5845 5846 5847 5849 5850 5851 5853 5854 5855 5856 5857 5857 5858
5837 5838 5839 5839 5841 5842 5844 5845 5846 5846 5845 5845 5844 5844 5844 5842 5841 5840 5840 5840 5839 5839 5839 5839 5840 5841 5841 5841 5841 5842 5843 5844 5845 5847 5848 5849 5851 5852 5853 5854 5855 5856 5856 5857
5833 5834 5834 5836 5837 5838 5840 5841 5842 5842 5842 5842 5842 5841 5841 5840 5839 5839 5838 5838 5838 5838 5838 5839 5840 5841 5841 5841 5841 5842 5843 5844 5845 5846 5848 5849 5850 5851 5852 5853 5854 5855 5855 5855
5829 5830 5831 5832 5833 5835 5836 5837 5838 5838 5838 5838 5839 5838 5839 5838 5837 5837 5836 5836 5837 5837 5838 5839 5840 5840 5841 5841 5842 5842 5843 5843 5845 5846 5847 5848 5849 5850 5852 5852 5853 5854 5854 5854
5824 5826 5827 5828 5829 5831 5832 5834 5835 5835 5835 5835 5835 5834 5836 5835 5835 5835 5835 5835 5836 5837 5838 5839 5839 5840 5841 5841 5842 5842 5843 5843 5844 5845 5846 5848 5849 5850 5851 5852 5852 5853 5853 5854
5819 5821 5823 5824 5825 5827 5828 5829 5830 5831 5831 5831 5831 5832 5833 5833 5833 5833 5833 5833 5834 5836 5837 5838 5839 5840 5841 5842 5842 5842 5843 5843 5844 5845 5846 5847 5848 5849 5850 5851 5852 5852 5853 5853
5813 5815 5817 5819 5821 5823 5824 5824 5826 5826 5827 5827 5828 5829 5831 5831 5831 5831 5831 5832 5833 5834 5836 5837 5838 5840 5841 5841 5841 5842 5842 5843 5844 5845 5846 5847 5848 5849 5850 5850 5851 5852 5852 5852
5808 5809 5812 5814 5816 5818 5820 5821 5821 5822 5824 5824 5824 5828 5828 5828 5829 5829 5829 5830 5831 5833 5834 5836 5837 5838 5839 5840 5841 5841 5842 5843 5843 5844 5845 5846 5847 5848 5849 5850 5850 5851 5851 5851
5802 5803 5805 5809 5811 5813 5815 5816 5817 5819 5820 5821 5821 5826 5825 5825 5825 5826 5827 5828 5830 5831 5833 5834 5835 5837 5838 5839 5840 5840 5841 5842 5843 5844 5845 5846 5846 5847 5848 5849 5849 5849 5849 5849
5797 5799 5801 5804 5808 5809 5810 5811 5813 5814 5816 5817 5818 5822 5822 5823 5823 5824 5825 5826 5827 5829 5831 5832 5834 5835 5836 5837 5838 5839 5840 5841 5842 5843 5844 5845 5845 5846 5846 5847 5847 5848 5848 5848
5792 5793 5796 5799 5800 5803 5805 5807 5808 5809 5811 5812 5814 5817 5819 5819 5821 5822 5823 5824 5825 5827 5829 5831 5832 5833 5834 5836 5837 5837 5838 5840 5841 5841 5842 5843 5844 5844 5845 5845 5845 5845 5846 5845
5786 5788 5790 5792 5794 5796 5799 5801 5803 5804 5807 5809 5811 5813 5815 5816 5817 5819 5820 5822 5824 5825 5827 5829 5830 5831 5832 5833 5835 5836 5837 5837 5838 5839 5840 5841 5841 5842 5842 5842 5843 5843 5843 5843
5780 5782 5784 5787 5789 5790 5793 5795 5797 5799 5802 5804 5806 5808 5811 5812 5813 5815 5817 5819 5821 5823 5825 5826 5827 5829 5830 5831 5832 5833 5834 5835 5836 5837 5837 5838 5839 5839 5839 5840 5840 5840 5840 5839
5774 5776 5778 5780 5783 5784 5787 5790 5792 5794 5797 5799 5801 5805 5806 5808 5809 5811 5814 5816 5818 5820 5822 5823 5824 5826 5827 5828 5830 5831 5831 5832 5833 5834 5834 5835 5835 5836 5836 5836 5836 5836 5836 5836
5768 5770 5772 5774 5777 5778 5784 5785 5786 5789 5792 5794 5797 5799 5802 5804 5805 5807 5810 5812 5814 5816 5818 5820 5821 5822 5824 5825 5827 5827 5828 5829 5830 5830 5831 5832 5832 5832 5832 5832 5832 5832 5832 5832
5762 5764 5766 5768 5770 5773 5777 5779 5780 5783 5786 5789 5791 5794 5797 5799 5801 5803 5806 5808 5810 5812 5814 5816 5817 5818 5820 5822 5823 5824 5825 5826 5826 5827 5827 5828 5828 5828 5828 5828 5828 5828 5827 5827
5756 5758 5761 5763 5765 5768 5772 5774 5775 5778 5780 5783 5786 5789 5792 5794 5797 5800 5802 5803 5805 5807 5809 5811 5813 5814 5816 5817 5818 5819 5820 5821 5822 5822 5823 5824 5824 5824 5823 5823 5823 5823 5822 5822
5751 5753 5755 5757 5759 5762 5766 5768 5771 5774 5776 5778 5780 5783 5786 5789 5792 5795 5797 5799 5800 5802 5805 5807 5808 5810 5811 5812 5813 5814 5815 5816 5817 5818 5818 5818 5818 5818 5818 5818 5818 5818 5817 5816
5746 5748 5749 5752 5754 5759 5760 5763 5766 5768 5770 5773 5775 5778 5781 5784 5786 5789 5791 5794 5796 5798 5800 5802 5804 5805 5806 5807 5808 5809 5810 5811 5812 5812 5813 5813 5813 5813 5813 5812 5812 5811 5810 5810
5740 5743 5744 5747 5750 5752 5754 5757 5759 5762 5765 5768 5770 5773 5776 5778 5781 5784 5786 5789 5791 5793 5795 5797 5798 5799 5801 5802 5803 5804 5805 5805 5806 5807 5807 5807 5807 5807 5807 5806 5806 5805 5804 5803
5735 5737 5739 5740 5743 5746 5748 5751 5754 5756 5759 5762 5765 5768 5770 5773 5776 5779 5781 5783 5785 5788 5790 5791 5793 5794 5795 5796 5797 5798 5799 5799 5800 5800 5801 5801 5801 5800 5800 5799 5799 5798 5797 5796
5730 5731 5732 5735 5737 5740 5743 5745 5748 5751 5754 5757 5759 5762 5765 5768 5771 5774 5776 5778 5780 5782 5784 5785 5786 5788 5789 5790 5791 5792 5792 5793 5793 5794 5794 5794 5794 5793 5793 5792 5792 5791 5790 5788
5725 5727 5729 5730 5732 5735 5738 5740 5743 5746 5749 5752 5754 5757 5760 5763 5766 5768 5770 5772 5774 5775 5777 5778 5780 5781 5783 5784 5784 5785 5785 5786 5787 5787 5787 5787 5786 5786 5785 5784 5783 5782 5782 5780